Satellite: RS-30
Catalog number: 32953
Epoch time:      11041.61877328
Element set:     458
Inclination:      082.4966 deg
RA of node:       241.4079 deg
Eccentricity:    0.0018436
Arg of perigee:   304.8846 deg
Mean anomaly:     055.0500 deg
Mean motion:   12.43010536 rev/day
Decay rate:        1.0e-07 rev/day^2
Epoch rev:           12336
Checksum:              275

Satellite: TACSAT-3
Catalog number: 35001
Epoch time:      11040.93849831
Element set:    0502
Inclination:      040.4535 deg
RA of node:       223.0026 deg
Eccentricity:    0.0024124
Arg of perigee:   342.8596 deg
Mean anomaly:     017.1403 deg
Mean motion:   15.44727235 rev/day
Decay rate:      7.100e-05 rev/day^2
Epoch rev:           09737
Checksum:              255

Satellite: PHARMSAT
Catalog number: 35002
Epoch time:      11040.89878882
Element set:    0467
Inclination:      040.4669 deg
RA of node:       220.7219 deg
Eccentricity:    0.0026301
Arg of perigee:   346.0517 deg
Mean anomaly:     013.9568 deg
Mean motion:   15.44941004 rev/day
Decay rate:      6.456e-05 rev/day^2
Epoch rev:           09739
Checksum:              302

Satellite: HAWKSAT1
Catalog number: 35003
Epoch time:      11040.86343149
Element set:    0515
Inclination:      040.4537 deg
RA of node:       205.3902 deg
Eccentricity:    0.0024934
Arg of perigee:   010.6834 deg
Mean anomaly:     349.4510 deg
Mean motion:   15.51817104 rev/day
Decay rate:     2.0570e-04 rev/day^2
Epoch rev:           09756
Checksum:              262

Satellite: CP6
Catalog number: 35004
Epoch time:      11040.82970160
Element set:    0515
Inclination:      040.4584 deg
RA of node:       201.5100 deg
Eccentricity:    0.0023924
Arg of perigee:   015.9447 deg
Mean anomaly:     344.2127 deg
Mean motion:   15.54107199 rev/day
Decay rate:     2.5310e-04 rev/day^2
Epoch rev:           09759
Checksum:              265

Satellite: AEROCUB3
Catalog number: 35005
Epoch time:      11006.09222617
Element set:     610
Inclination:      040.4461 deg
RA of node:       021.7975 deg
Eccentricity:    0.0025578
Arg of perigee:   084.1677 deg
Mean anomaly:     280.7191 deg
Mean motion:   16.39196088 rev/day
Decay rate:  1.4049365e-01 rev/day^2
Epoch rev:            9254
Checksum:              305

Satellite: METEOR-M
Catalog number: 35865
Epoch time:      11041.76431485
Element set:      88
Inclination:      098.7242 deg
RA of node:       098.4324 deg
Eccentricity:    0.0003250
Arg of perigee:   045.7569 deg
Mean anomaly:     314.3824 deg
Mean motion:   14.21834378 rev/day
Decay rate:       1.76e-06 rev/day^2
Epoch rev:            7262
Checksum:              303

Satellite: RS-38
Catalog number: 35869
Epoch time:      11041.70914172
Element set:     100
Inclination:      098.7225 deg
RA of node:       098.4189 deg
Eccentricity:    0.0005397
Arg of perigee:   041.8013 deg
Mean anomaly:     318.3539 deg
Mean motion:   14.21999729 rev/day
Decay rate:       1.77e-06 rev/day^2
Epoch rev:            7262
Checksum:              321

/EX


_______________________________________________
Via the Keps mailing list courtesy of AMSAT-NA
http://amsat.org/mailman/listinfo/keps

--- ViaMAIL!/WC v1.60d
 * Origin: Chowdanet (401-724-4410) telnet://chowdanet.com  (1:323/120)